STARLINK-32261, 61530

Orbit data source: Space-Track

STARLINK-32261, 61530 is a payload satellite owned by SpaceX/Seattle (US) in LEO that was launched on Tue, 15 Oct 2024 UTC via an FALCON 9 launch vehicle from the Air Force Eastern Test Range (AFETR). Payload-class satellites include a variety of spacecraft equipped with specific instruments for various scientific and technological missions. These include communications satellites like Starlink; space stations such as the ISS; scientific satellites like the Hubble; Earth observation satellites from companies like Planet Labs, Umbra, and HawkEye 360; GPS; miniature CubeSats for education and research; and military/defense satellites.

Loading next visibility...
Identifier
61530, 2024-183X
Orbit
LEO
Country
Flag of USUS
Related business
Manufacturer
SpaceX/Seattle
Mission
Operational Commercial Communications
Bus & Motor
STARLINK V2M, Unknown motor
Mass
730 kg wet, ~700 kg dry
Launch date (UTC)
2024-10-15 (2 years ago)
Launch vehicle
FALCON 9
Launch site
Air Force Eastern Test Range (AFETR)
Object type
Payload
Rocket body
Debris
Shape & HBR
Box + 2 Pan, 17.7 m
Radar Cross Section
33.884 m², Large (>1 m²)

Expand to show TLE details & history
Last TLE update: 21 hours ago

TLE from 21 hours ago
0 STARLINK-32261
1 61530U 24183X   26171.01826957  .00001191  00000-0  50128-4 0  9990
2 61530  53.1603  26.8477 0001253  74.6189 285.4950 15.31712784 95326
Epoch: 2026-06-20T00:26Z
TLE epoch observation values (Epoch: 2026-06-20T00:26:18.490Z)
Latitude
-0.00011°
Longitude
112.03166°
Altitude
471.373 km
Speed
7.632 km/s
True Right ascension
01h 47m 23s
True Declination
0° 00' 00"
Sunlit
Object was in daylight at epoch
Visualization orbit readout
Latitude
Unknown
Longitude
Unknown
Altitude
Unknown
Speed
Unknown
Apparent Right ascension
Unknown
Apparent Declination
Unknown
Sunlit
N/A
Visualization observer readout
Local Sidereal Time
08:42:24
Azimuth
Unknown
Elevation
Unknown
Doppler factor
Unknown
Orbital elements
Apogee altitude
471.817 km
Perigee altitude
470.1 km
Semi-major axis
6,849.095 km
Eccentricity
0.00013
Inclination
53.1603°
RAAN
26.8477°
Arg. of periapsis
74.6189°
True anomaly
285.48116°
Mean anomaly
285.495°
Eccentric anomaly
285.48808°
Mean motion
3.82907 °/min
Orbital period
94.02 mins
BSTAR
0.000050128
Loading maneuver chart data...
Computing Atmospheric mass density...
Loading historical data...
Loading historical data...
Loading historical data...
Loading historical data...
Loading historical data...
Loading historical data...
Loading historical data...

Documentation

Showing up to 5 results
|